Regional Weather Roundup
Issued by NWS Little Rock, AR

Home | Current Version | Previous Version | Text Only | Print | Product List | Glossary Off
Versions: 1 2 3 4 5 6 7 8 9 10 11 12 13 14 15 16 17 18 19 20 21 22 23 24 25 26 27

000
ASUS44 KLZK 250405
RWRLZK

WEATHER ROUNDUP FOR ARKANSAS
NATIONAL WEATHER SERVICE LITTLE ROCK AR
1100 PM CDT THU APR 24 2014

NOTE: "FAIR" INDICATES FEW OR NO CLOUDS BELOW 12,000 FEET WITH NO
SIGNIFICANT WEATHER AND/OR OBSTRUCTIONS TO VISIBILITY.

ARZ001-003-010-029-250500-
NORTHWEST ARKANSAS

CITY           SKY/WX    TMP DP  RH WIND       PRES   REMARKS
FAYETTEVILLE   CLEAR     54  46  74 NW8       29.91R
FORT SMITH     CLEAR     57  47  69 W8        29.91R
HARRISON       PTCLDY    56  47  71 NW13G22   29.85R
BENTONVILLE    CLEAR     55  45  67 NW6       29.92R
ROGERS         CLEAR     55  43  63 NW9       29.92R
SILOAM SPGS    CLEAR     52  39  62 NW8       29.94R
HIGHFILL       CLEAR     53  45  74 NW6       29.91R
$$

ARZ004-005-016-250500-
NORTH CENTRAL ARKANSAS

CITY           SKY/WX    TMP DP  RH WIND       PRES   REMARKS
BATESVILLE     MOCLDY    63  54  72 W13G20    29.75S
FLIPPIN        CLOUDY    61  46  59 NW10G22   29.82R
MTN HOME       CLOUDY    58  51  78 NW7       29.80R
$$

ARZ040-041-250500-
WEST CENTRAL ARKANSAS

CITY           SKY/WX    TMP DP  RH WIND       PRES   REMARKS
MENA           CLEAR     63  43  48 NW7       29.92R
MOUNT IDA      CLEAR     60  49  66 NW3       29.87R
$$

ARZ009-017-025-026-028-250500-
NORTHEAST ARKANSAS

CITY           SKY/WX    TMP DP  RH WIND       PRES   REMARKS
CORNING        FAIR      64  63  94 SW16      29.71R
JONESBORO      CLOUDY    66  60  81 W10       29.73R
NEWPORT        MOCLDY    63  56  78 W14       29.76R
WALNUT RIDGE   MOCLDY    64  57  77 W15       29.72R
BLYTHEVILLE    MOCLDY    64  62  93 S8        29.72F
$$

ARZ022-023-033-042-044-250500-
CENTRAL ARKANSAS

CITY           SKY/WX    TMP DP  RH WIND       PRES   REMARKS
LITTLE ROCK    CLEAR     63  55  75 W10       29.83R
N LITTLE ROCK  CLEAR     61  57  86 W6        29.83R
JACKSONVILLE   CLEAR     62  55  78 W9        29.81R
SEARCY         CLEAR     62  56  81 W10       29.80R
HOT SPRINGS    CLEAR     61  50  67 W9        29.86R
RUSSELLVILLE   CLEAR     62  52  69 W9G17     29.85R
CLINTON        CLOUDY    63  54  72 NW13G24   29.82R
$$

ARZ036-250500-
EAST ARKANSAS

CITY           SKY/WX    TMP DP  RH WIND       PRES   REMARKS
WEST MEMPHIS   CLOUDY    67  66  97 SW6       29.75F
$$

ARZ050-053-066-070-073-250500-
SOUTHWEST ARKANSAS

CITY           SKY/WX    TMP DP  RH WIND       PRES   REMARKS
ARKADELPHIA    FAIR      65  55  69 W6        29.89R
CAMDEN         CLEAR     57  55  94 MISG      29.88R
TEXARKANA      CLEAR     67  50  54 NW5       29.90R
EL DORADO      CLEAR     61  60  97 W5        29.88R
DE QUEEN       LGT RAIN  64  46  52 NW6       29.90R
$$

ARZ056-057-069-250500-
SOUTHEAST ARKANSAS

CITY           SKY/WX    TMP DP  RH WIND       PRES   REMARKS
PINE BLUFF     CLEAR     61  58  90 W6        29.85R
STUTTGART      CLEAR     63  55  77 W15       29.82R
MONTICELLO     CLEAR     62  59  90 SW5       29.86R

$$





USA.gov is the U.S. government's official web portal to all federal, state and local government web resources and services.